www.pogodaiklimat.ru

Погода и климат >> Архив погоды >> Хорватия >> Сисак


ПОГОДА в Сисаке

  • Прогноз погоды в Сисаке
  • Монитор погоды в Сисаке

АРХИВ ПОГОДЫ в Сисаке

Время (UTC), дата Ветер
(напр.,м/с)
 
Видим.   Явления Облачность Т
(С)
Тd
(С)
f
(%)
Тe
(С)
Тes
(С)
Комфортность P
(гПа)
Po
(гПа)
Тmin
(С)
Tmax
(С)
R
(мм)
R24
(мм)
S
(см)
04 17.02 З 1 8000 м дымка ясно -2.6 -2.9 98 -5 -5 1030.4 1016.8
05 17.02 ЮВ 1 8000 м дымка ясно -2.5 -2.8 98 -5 -5 1030.6 1017.0
06 17.02 штиль 0 8000 м дымка ясно -3.2 -3.6 97 -4 -4 1030.9 1017.2 -3.2
07 17.02 В 1 10 км ясно -2.0 -2.3 98 -4 -3 1031.2 1017.6
08 17.02 В 1 10 км ясно +2.0 +0.3 88 0 +4 1031.1 1017.7
09 17.02 В 1 15 км ясно +4.6 -0.5 69 +4 +9 1030.5 1017.2
10 17.02 С 1 15 км ясно +7.6 +0.2 59 +7 +14 1030.3 1017.2
11 17.02 В 1 15 км ясно +9.8 +0.6 53 +10 +18 1030.0 1017.0
12 17.02 В 1 15 км ясно +11.6 0.0 45 +12 +19 1028.8 1015.9
13 17.02 В 1 15 км ясно +14.4 +1.2 41 +15 +20 1028.0 1015.2
14 17.02 В 1 н/о н/о +14.0 -3.7 29 +15 +15 1027.2 1014.3
15 17.02 В 2 н/о н/о +13.8 -3.9 29 +14 +14 1026.6 1013.7
16 17.02 В 1 н/о н/о +12.6 -1.7 37 +13 +13 1026.3 1013.4
17 17.02 СВ 1 н/о н/о +9.7 -1.6 45
18 17.02 В 1 10 км ясно +6.6 -0.8 59 +6 +6 1026.8 1013.6 +14.6
19 17.02 штиль 0 10 км ясно +3.8 -0.6 73 +3 +3 1027.2 1013.9
20 17.02 СВ 1 10 км ясно +2.2 0.0 85 +1 +1 1027.4 1014.0
21 17.02 н/о н/о +1.2 -0.7 87 1027.2 1013.7
00 18.02 ЮЗ 1 н/о н/о -0.5 -1.7 92 -3 -3 1026.9 1013.4
03 18.02 штиль 0 4000 м дымка ясно -2.5 -3.1 96 -4 -4 1026.5 1012.9
04 18.02 штиль 0 4000 м дымка ясно -3.0 -3.7 95 -4 -4 1026.6 1013.0
05 18.02 штиль 0 4000 м дымка 4/0
[Ci sp]
-3.1 -3.8 95 -4 -4 1026.6 1013.0
06 18.02 штиль 0 5000 м дымка 4/0
[Ac trans Ci sp]
-3.4 -3.8 97 -5 -5 1026.7 1013.1 -3.5
07 18.02 штиль 0 5000 м дымка 1/0
[Ci fib]
-2.1 -2.6 96 -3 -2 1027.0 1013.4
08 18.02 В 1 8000 м дымка 3/0
[Ci fib]
+2.2 -0.3 84 +1 +4 1026.9 1013.5
09 18.02 В 1 10 км 3/0
[Ci sp]
+5.2 0.0 69 +4 +10 1026.7 1013.5
10 18.02 С 1 10 км 3/0
[Ci sp]
+7.6 +0.5 61 +7 +14 1026.2 1013.1
11 18.02 В 1 10 км 3/0
[Ci sp]
+10.1 +0.5 51 +10 +18 1025.5 1012.5
12 18.02 СВ 1 10 км 3/0
[Ci sp]
+12.4 +0.3 43 +13 +20 1024.3 1011.4
13 18.02 В 2 15 км 4/0
[Ci sp]
+13.8 -0.6 37 +14 +18 1023.5 1010.7
14 18.02 ЮВ 2 н/о н/о +15.4 -1.2 32 +16 +16 1022.3 1009.6
15 18.02 СВ 2 н/о н/о +15.2 -1.3 32 +15 +15 1021.8 1009.1
16 18.02 СВ 1 н/о н/о +14.0 -2.0 33 +15 +15 1021.6 1008.8
17 18.02 СВ 1 н/о н/о +10.8 +0.3 48 +11 +11 1021.7 1008.8
18 18.02 С 1 10 км 4/0
[Ci sp]
+7.5 +1.5 66 +7 +7 1021.9 1008.9 +15.5
19 18.02 штиль 0 8000 м дымка 3/0
[Ci sp]
+5.0 +1.1 76 +4 +4 1022.1 1008.9
20 18.02 штиль 0 6000 м дымка ясно +3.3 +0.4 81 +2 +2 1022.1 1008.9
21 18.02 н/о н/о +1.4 -0.8 85 1022.1 1008.7
00 19.02 штиль 0 н/о н/о 0.0 -1.4 90 -1 -1 1021.8 1008.4
03 19.02 штиль 0 6000 м дымка ясно -1.5 -2.0 96 -3 -3 1020.9 1007.4
04 19.02 ЮВ 1 6000 м дымка ясно -2.1 -2.6 96 -4 -4 1020.9 1007.4
05 19.02 штиль 0 6000 м дымка ясно -2.6 -3.2 96 -4 -4 1021.2 1007.7
06 19.02 В 1 6000 м дымка ясно -2.7 -3.3 96 -5 -5 1021.2 1007.7 -3.0
07 19.02 З 1 6000 м дымка ясно -1.4 -2.2 94 -4 -2 1021.5 1008.0
08 19.02 С 1 8000 м дымка ясно +1.7 0.0 88 -0 +3 1021.7 1008.4
09 19.02 С 1 8000 м дымка ясно +5.2 +1.0 74 +4 +10 1021.5 1008.4
10 19.02 В 1 8000 м дымка ясно +10.4 +1.5 54 +10 +18 1021.2 1008.3
11 19.02 ЮЗ 2 10 км ясно +15.7 +2.1 40 +16 +23 1020.4 1007.7
12 19.02 З 3 25 км ясно +16.9 +1.7 36 +17 +22 1019.8 1007.2
13 19.02 З 3 25 км ясно +17.8 +1.3 33 +18 +22 1019.1 1006.5
14 19.02 З 3 н/о н/о +18.2 -2.7 24 +18 +18 1018.8 1006.2
15 19.02 СЗ 3 н/о н/о +17.1 -2.5 26 +17 +17 1018.8 1006.2
16 19.02 С 2 н/о н/о +14.9 -0.8 34 +15 +15 1018.9 1006.2
17 19.02 С 2 н/о н/о +12.1 +1.8 49 +11 +11 1019.4 1006.6
18 19.02 ЮЗ 2 15 км 5/0
[Ci sp]
+10.1 +0.2 50 +9 +9 1019.8 1006.9 +18.3
19 19.02 ЮЗ 1 10 км 4/0
[Ci sp]
+7.4 -0.6 57 +7 +7 1020.5 1007.5
20 19.02 Ю 2 10 км 4/0
[Ci sp]
+6.4 +0.9 68 +4 +4 1020.9 1007.8
21 19.02 З 1 н/о н/о +3.9 -0.8 71 +3 +3 1021.6 1008.3
00 20.02 штиль 0 н/о н/о +1.4 -1.4 82 0 0 1022.2 1008.8
03 20.02 З 2 25 км ясно 0.0 -1.3 91 -4 -4 1022.2 1008.8
04 20.02 Ю 1 25 км ясно -0.4 -1.7 91 -3 -3 1022.4 1009.0
05 20.02 С 1 15 км ясно -0.5 -1.8 91 -3 -3 1022.4 1009.0
06 20.02 ЮВ 2 20 км ясно -1.2 -2.0 94 -5 -5 1023.2 1009.7 -1.3
07 20.02 С 1 20 км ясно +1.1 -0.4 90 -1 +1 1023.8 1010.4
08 20.02 С 2 12 км 1/0
[Ci fib]
+3.5 +1.2 85 +1 +4 1024.7 1011.4
09 20.02 Ю 1 12 км 3/0
[Ci fib]
+7.8 +1.0 62 +7 +13 1024.9 1011.8
10 20.02 штиль 0 12 км 4/0
[Ci fib]
+10.3 +1.9 56 +10 +18 1025.0 1012.0
11 20.02 СВ 3 12 км 4/0
[Ci fib]
+11.9 +2.1 51 +11 +16 1024.6 1011.7
12 20.02 СВ 2 12 км 5/0
[Ci fib]
+12.8 +2.0 48 +12 +18 1024.1 1011.3
13 20.02 СВ 2 12 км 6/0
[Ci fib]
+14.4 +1.5 42 +14 +18 1023.7 1010.9
14 20.02 СВ 1 н/о н/о +14.8 +0.3 37 +16 +16 1023.6 1010.8
15 20.02 штиль 0 н/о н/о +14.3 +0.6 39 +14 +14 1023.5 1010.7
16 20.02 штиль 0 н/о н/о +13.0 +1.1 44 +13 +13 1023.4 1010.5
17 20.02 н/о н/о +9.7 +0.9 54 1024.1 1011.1
18 20.02 штиль 0 8000 м дымка 3/0
[Ci fib]
+7.6 +1.3 64 +7 +7 1024.8 1011.7 +14.5
19 20.02 штиль 0 6000 м дымка 4/0
[As trans]
+5.8 +1.2 72 +5 +5 1025.2 1012.0
20 20.02 штиль 0 6000 м дымка 4/0
[Ac trans]
+4.7 +1.5 80 +4 +4 1025.8 1012.6
21 20.02 н/о н/о +3.6 +0.7 81 1026.4 1013.1
00 21.02 ЮЗ 1 н/о н/о +2.1 -0.1 85 0 0 1027.4 1014.0
03 21.02 штиль 0 8000 м дымка 4/0
[Ac und]
+1.3 +0.1 92 0 0 1028.3 1014.9
04 21.02 штиль 0 8000 м дымка 3/0
[Ac trans]
+0.4 -0.4 94 -1 -1 1028.5 1015.0
05 21.02 штиль 0 6000 м дымка 8/0
[Ac und]
0.0 -0.2 99 -1 -1 1028.6 1015.1
06 21.02 ЮЗ 1 5000 м дымка 3/0
[Ac trans Ci fib]
+0.3 -0.5 94 -2 -2 1029.0 1015.5 0.0
07 21.02 штиль 0 8000 м дымка 5/0
[Ac lent Ci fib]
+1.4 +0.7 95 0 +2 1029.6 1016.2
08 21.02 ЮЗ 1 10 км 5/0
[Ci fib]
+3.9 +2.1 88 +2 +6 1029.8 1016.5
09 21.02 З 1 10 км 5/0
[Ac und Ci fib]
+6.9 +2.5 74 +6 +11 1030.0 1016.8
10 21.02 З 1 12 км 4/0
[Ac trans Ci fib]
+9.8 +2.5 60 +10 +16 1029.6 1016.6
11 21.02 ЮЗ 1 15 км 3/0
[Ac lent Ci fib]
+12.6 +3.0 52 +13 +19 1028.7 1015.8
12 21.02 В 2 15 км 3/0
[Ci fib]
+13.7 +1.9 45 +13 +20 1027.8 1015.0
13 21.02 Ю 2 15 км 3/0
[Ci fib]
+14.5 +2.2 43 +14 +19 1027.3 1014.5
14 21.02 Ю 1 н/о н/о +16.0 +1.7 38 +17 +17 1026.5 1013.7
15 21.02 СВ 1 н/о н/о +14.8 +1.4 40 +16 +16 1026.1 1013.3
16 21.02 В 1 н/о н/о +13.5 +1.2 43 +14 +14 1025.8 1012.9
17 21.02 штиль 0 н/о н/о +10.2 +1.1 53 +10 +10 1025.8 1012.8
18 21.02 штиль 0 10 км ясно +7.5 +1.4 65 +7 +7 1025.9 1012.8 +16.0
19 21.02 штиль 0 10 км ясно +5.6 +1.7 76 +5 +5 1025.7 1012.5
20 21.02 штиль 0 10 км 6/0
[As trans]
+4.4 +2.1 85 +3 +3 1025.7 1012.5
21 21.02 н/о н/о +5.7 +2.2 78 1025.8 1012.6
00 22.02 В 1 н/о н/о +6.3 +2.3 76 +5 +5 1025.1 1011.9
03 22.02 Ю 1 10 км 9/4 300 м
[Sc Ac trans]
+5.5 +4.0 90 +4 +4 1024.0 1010.8
04 22.02 ЮЗ 1 10 км 9/4 300 м
[Sc Ac As]
+4.8 +3.3 90 +3 +3 1023.2 1010.0
05 22.02 З 1 10 км 8/4 300 м
[Sc Ac As]
+3.8 +2.7 93 +2 +2 1022.8 1009.6
06 22.02 ЮЗ 2 15 км 10/10 300 м
[Sc]
+5.4 +3.4 87 +3 +3 1022.6 1009.5 +3.8
07 22.02 С 2 15 км 10/10 300 м
[Sc]
+5.0 +3.7 91 +2 +2 1023.2 1010.0
08 22.02 СЗ 1 8000 м слаб. дождь 10/9 300 м
[Sc As op]
+5.9 +4.2 89 +5 +5 1024.1 1011.0
09 22.02 ЮЗ 1 8000 м слаб. дождь 10/9 300 м
[Sc As op]
+6.6 +5.6 93 +5 +6 1024.9 1011.8
10 22.02 З 1 10 км 10/10 300 м
[Sc]
+7.8 +7.2 96 +7 +7 1025.0 1011.9
11 22.02 З 2 15 км 9/9 300 м
[Sc]
+9.2 +7.8 91 +7 +8 1024.5 1011.5
12 22.02 З 2 20 км 9/9 300 м
[Sc]
+11.4 +7.4 76 +10 +11 1024.3 1011.4 0.4
13 22.02 С 6 20 км 9/9 300 м
[Sc]
+11.8 +6.3 69 +9 +9 1024.3 1011.4
14 22.02 С 8 н/о н/о +12.1 +3.9 57 +9 +9 1024.2 1011.3
15 22.02 С 8 н/о н/о +11.1 +1.9 53 +8 +8 1025.3 1012.3
16 22.02 С 9 н/о н/о +10.0 -1.3 45 +6 +6 1025.9 1012.9
17 22.02 С 8 н/о н/о +7.9 -3.0 46 +4 +4 1028.0 1014.9
18 22.02 С 10 30 км ясно +6.2 -1.6 57 +1 +1 1030.0 1016.8 +12.3 0.4
19 22.02 С 6 30 км ясно +4.4 -6.7 44 -0 -0 1032.3 1019.0
20 22.02 С 7 30 км ясно +2.6 -7.1 49 -3 -3 1034.0 1020.6
21 22.02 С 8 н/о н/о +2.1 -8.8 44 -4 -4 1035.1 1021.6
00 23.02 С 9 н/о н/о +0.1 -9.6 48 -7 -7 1037.0 1023.4
03 23.02 С 5 35 км 1/0
[Ac trans]
-2.0 -8.7 60 -8 -8 1039.2 1025.5
04 23.02 С 4 35 км ясно -2.6 -8.4 64 -8 -8 1040.2 1026.4
05 23.02 С 3 40 км 1/0
[Ac lent]
-3.4 -8.8 66 -8 -8 1040.9 1027.1
06 23.02 С 3 40 км 1/0
[Ac lent]
-4.0 -9.2 67 -9 -9 1041.6 1027.7 -4.0
07 23.02 С 3 40 км ясно -3.0 -7.9 69 -8 -7 1042.1 1028.3
08 23.02 С 5 35 км 1/1 300 м
[Cu hum]
-1.6 -8.5 59 -8 -6 1041.9 1028.1
09 23.02 С 5 35 км 1/1 300 м
[Cu hum]
-0.2 -9.1 51 -6 -3 1042.1 1028.4
10 23.02 С 5 35 км 3/3 300 м
[Cu hum]
+0.4 -9.3 48 -5 -2 1042.1 1028.4
11 23.02 С 6 35 км 4/3 300 м
[Cu hum Ci fib]
+1.0 -9.3 46 -5 -3 1041.4 1027.8
12 23.02 С 6 35 км 3/1 300 м
[Cu hum Ci fib]
+1.9 -8.7 45 -3 -1 1041.0 1027.4
13 23.02 С 7 35 км 4/1 300 м
[Cu hum Ci fib]
+2.0 -8.5 46 -4 -3 1040.7 1027.1
14 23.02 С 6 н/о н/о +2.6 -12.0 33 -2 -2 1039.9 1026.3
15 23.02 С 5 н/о н/о +2.5 -12.5 32 -2 -2 1039.5 1025.9
16 23.02 СВ 4 н/о н/о +1.7 -12.8 33 -2 -2 1039.7 1026.1
17 23.02 С 2 н/о н/о +0.8 -12.6 36 -2 -2 1039.8 1026.2
18 23.02 С 3 35 км ясно -0.5 -10.3 47 -5 -5 1040.8 1027.1 +2.2
19 23.02 С 2 35 км ясно -1.1 -9.9 51 -4 -4 1041.0 1027.3
20 23.02 С 3 35 км ясно -1.8 -10.0 53 -6 -6 1041.4 1027.6
21 23.02 С 3 н/о н/о -1.6 -10.4 51 -6 -6 1041.5 1027.7

 

Местоположение метеостанции Сисак (Хорватия): широта 45.50 долгота 16.37 высота над уровнем моря 106 м.

В архиве по умолчанию представлена погода в Сисаке за последнюю неделю. Архивные данные за месяц целиком и за предыдущие месяцы, начиная с января 2011 года, Вы можете получить, выбрав интересующий диапазон дат из раскрывающегося списка и нажав кнопку "Ввод!".


*Определитесь, кто Вы:
робот инопланетянин человек

Внимание! Время в таблицах - всемирное. Для получения местного времени необходимо прибавить поправку, которая равна 1 ч.

Смотрите также архив погоды в соседних городах и на ближайших метеорологических станциях:

Погода в Загреб аэропорту (Хорватия) (35 км)
Погода в Загребе (Хорватия) (44 км)
Погода в Бьеловаре (Хорватия) (45 км)
Погода в Загреб-Градеце (Хорватия) (47 км)
Погода в Пунтиярке (Хорватия) (56 км)
Погода в Крижевцах (Хорватия) (61 км)
Погода в Карловаце (Хорватия) (62 км)
Погода в Даруваре (Хорватия) (68 км)
Погода на Било-Горе (Хорватия) (77 км)
Погода в Церки-об-Крки (Словения) (80 км)

Пояснения к столбцам:

Ветер - указаны скорость ветра в м/с - средняя за 10 мин, порывы в срок и между сроками (в фигурных скобках) и направление, откуда дует ветер: С - северный, СВ - северо-восточный, В - восточный, ЮВ - юго-восточный, Ю - южный, ЮЗ - юго-западный, З - западный, СЗ - северо-западный.
Видимость - горизонтальная дальность видимости в метрах или километрах. При видимости от 1 до 10 км при отсутствии осадков обычно наблюдается дымка, при ухудшении видимости до 1 км и менее - туман. В сухую погоду видимость может ухудшаться дымом, пылью или мглою.
Явления - указаны атмосферные явления, наблюдавшиеся в срок или в последний час перед сроком; фигурными скобками обозначены явления, наблюдавшиеся между сроками (за 1-3 часа до срока); квадратными скобками обозначены град или гололедные отложения с указанием их диаметра в мм.
Облачность - указаны через наклонную черту общая и нижняя облачность в баллах и высота нижней границы облаков в метрах; квадратными скобками обозначены формы облаков: Ci - перистые, Cs - перисто-слоистые, Cc - перисто-кучевые, Ac - высококучевые, As - высокослоистые, Sc - слоисто-кучевые, Ns - слоисто-дождевые, Cu - кучевые, Cb - кучево-дождевые. Подробнее классификацию облаков см. в Атласе облаков (PDF).
T - Температура воздуха - температура, измеренная на высоте 2 м над землей.
Td - Температура точки росы - температура, при понижении до которой содержащийся в воздухе водяной пар достигнет насыщения.
f - Относительная влажность воздуха - влажноcть воздуха, измеренная на высоте 2 м над землей.
Te - Эффективная температура - температура, которую ощущает одетый по сезону человек в тени. Характеристика душности погоды. При расчете учитывается влияние влажности воздуха и скорости ветра на теплоощущения человека.
Tes - Эффективная температура на солнце - температура, которую ощущает человек, с поправкой на солнечный нагрев. Характеристика знойности погоды. Зависит от высоты солнца над горизонтом, облачности и скорости ветра. Ночью, в пасмурную погоду, а также при ветре 12 м/с и более поправка равна нулю.
P - Атмосферное давление - приведенное к уровню моря атмосферное давление.
Po - Атмосферное давление - измеренное на уровне метеостанции атмосферное давление.
Tmin - Минимальная температура - минимум температуры воздуха на высоте 2 м над землей.
Tmax - Максимальная температура - максимум температуры воздуха на высоте 2 м над землей.
R - Количество осадков - Количество выпавших осадков за период времени, мм. При наведении курсора мыши на число - период времени, за который выпало указанное количество осадков.
R24 - Количество осадков - Количество выпавших осадков за 24 часа, мм.
S - Снежный покров - Высота снежного покрова, см. При наведении курсора мыши на число - состояние снежного покрова и степень покрытия местности в баллах.